CW0146 Weather Reports


Display with metric or nautical units.
time (UTC)temp
F
wind
direction
speed
MPH
gust
MPH
rain 1hr
in
rain 24hr
in
rain mn
in
humidity
%
barometer
mb
20260506070954 76 173 3.0 8.0 0.00 0.00 0.00 91 1009.0
20260506070454 76 168 5.0 9.0 0.00 0.00 0.00 91 1009.0
20260506062454 76 147 3.0 5.0 0.00 0.00 0.00 91 1009.0
20260506061954 76 106 2.0 4.0 0.00 0.00 0.00 91 1009.0
20260506061454 76 185 2.0 4.0 0.00 0.00 0.00 91 1008.0
20260506060954 76 198 2.0 5.0 0.00 0.00 0.00 91 1008.0
20260506060453 76 191 2.0 6.0 0.00 0.00 0.00 92 1008.0
20260506050955 76 171 2.0 5.0 0.00 0.00 0.00 91 1009.0
20260506050453 76 114 2.0 4.0 0.00 0.00 0.00 91 1009.0
20260506044954 76 176 1.0 3.0 0.00 0.00 0.00 91 1009.0
20260506044454 76 130 1.0 4.0 0.00 0.00 0.00 91 1009.0
20260506043954 76 104 1.0 3.0 0.00 0.00 0.00 91 1009.0
20260506043454 76 156 1.0 2.0 0.00 0.00 0.00 90 1009.0
20260506042954 76 143 2.0 3.0 0.00 0.00 0.00 90 1009.0
20260506042454 76 124 3.0 6.0 0.00 0.00 0.00 90 1009.0
20260506041954 76 120 2.0 3.0 0.00 0.00 0.00 90 1009.0
20260506041454 76 147 1.0 2.0 0.00 0.00 0.00 90 1009.0
20260506040954 76 146 2.0 4.0 0.00 0.00 0.00 89 1008.0
20260506040454 76 191 2.0 5.0 0.00 0.00 0.00 89 1008.0
20260506035954 76 197 1.0 4.0 0.00 0.00 0.00 89 1008.0
20260506035454 76 135 2.0 4.0 0.00 0.00 0.00 89 1008.0
20260506034954 77 124 1.0 2.0 0.00 0.00 0.00 89 1008.0
20260506034454 77 173 2.0 3.0 0.00 0.00 0.00 89 1008.0
20260506033955 77 150 1.0 4.0 0.00 0.00 0.00 88 1008.0
20260506033454 77 102 3.0 5.0 0.00 0.00 0.00 88 1008.0
20260506032954 77 176 1.0 2.0 0.00 0.00 0.00 88 1008.0
20260506032454 77 144 0.0 2.0 0.00 0.00 0.00 88 1008.0
20260506031954 77 111 1.0 2.0 0.00 0.00 0.00 88 1008.0
20260506031454 77 176 1.0 2.0 0.00 0.00 0.00 87 1008.0
20260506030954 77 112 1.0 4.0 0.00 0.00 0.00 87 1008.0
20260506030454 78 83 2.0 3.0 0.00 0.00 0.00 87 1008.0
20260506025954 78 133 2.0 4.0 0.00 0.00 0.00 87 1008.0
20260506025454 78 153 1.0 2.0 0.00 0.00 0.00 86 1008.0
20260506024954 78 110 2.0 4.0 0.00 0.00 0.00 86 1008.0
20260506024454 78 171 1.0 2.0 0.00 0.00 0.00 85 1008.0
20260506023954 78 139 1.0 2.0 0.00 0.00 0.00 85 1007.0
20260506023454 79 136 2.0 4.0 0.00 0.00 0.00 84 1007.0
20260506022955 79 102 2.0 4.0 0.00 0.00 0.00 83 1007.0
20260506022454 79 183 1.0 2.0 0.00 0.00 0.00 83 1007.0
20260506021954 79 123 1.0 3.0 0.00 0.00 0.00 82 1007.0
20260506021454 79 134 2.0 4.0 0.00 0.00 0.00 82 1007.0
20260506020955 79 142 1.0 3.0 0.00 0.00 0.00 82 1007.0
20260506020456 79 130 1.0 2.0 0.00 0.00 0.00 82 1007.0
20260506015954 79 95 2.0 6.0 0.00 0.00 0.00 81 1007.0
20260506015454 80 77 1.0 3.0 0.00 0.00 0.00 81 1007.0
20260506014954 80 107 1.0 2.0 0.00 0.00 0.00 81 1007.0
20260506014454 80 89 1.0 2.0 0.00 0.00 0.00 81 1007.0
20260506013954 80 105 1.0 4.0 0.00 0.00 0.00 81 1007.0
20260506013454 80 156 2.0 4.0 0.00 0.00 0.00 81 1007.0
20260506012954 80 98 0.0 2.0 0.00 0.00 0.00 80 1007.0
20260506012454 80 72 1.0 3.0 0.00 0.00 0.00 80 1007.0
20260506011956 80 120 1.0 3.0 0.00 0.00 0.00 79 1007.0
20260506011455 81 101 2.0 4.0 0.00 0.00 0.00 79 1007.0
20260506010954 81 116 1.0 2.0 0.00 0.00 0.00 78 1007.0
20260506010454 81 99 1.0 3.0 0.00 0.00 0.00 78 1007.0
20260506005954 82 116 1.0 1.0 0.00 0.00 0.00 77 1007.0
20260506005454 82 147 1.0 3.0 0.00 0.00 0.00 77 1007.0
20260506004954 82 183 1.0 3.0 0.00 0.00 0.00 76 1007.0
20260506004454 82 177 1.0 3.0 0.00 0.00 0.00 76 1007.0
20260506003954 82 174 2.0 4.0 0.00 0.00 0.00 76 1007.0
20260506003454 82 106 1.0 2.0 0.00 0.00 0.00 76 1006.0
20260506002954 82 97 2.0 5.0 0.00 0.00 0.00 76 1007.0
20260506002454 82 163 1.0 4.0 0.00 0.00 0.00 75 1007.0
20260506001954 82 122 2.0 4.0 0.00 0.00 0.00 75 1007.0
20260506001454 82 201 2.0 4.0 0.00 0.00 0.00 74 1007.0
20260506000954 82 129 2.0 4.0 0.00 0.00 0.00 74 1007.0
20260506000455 82 130 1.0 2.0 0.00 0.00 0.00 74 1007.0
20260505235957 83 141 2.0 4.0 0.00 0.00 0.00 74 1006.0
20260505235454 83 170 2.0 4.0 0.00 0.00 0.00 74 1006.0
20260505234954 83 206 2.0 4.0 0.00 0.00 0.00 74 1006.0
20260505234454 83 132 2.0 5.0 0.00 0.00 0.00 73 1006.0
20260505233954 83 118 1.0 2.0 0.00 0.00 0.00 73 1006.0
20260505233454 83 127 2.0 4.0 0.00 0.00 0.00 73 1006.0
20260505232954 83 185 5.0 9.0 0.00 0.00 0.00 73 1006.0
20260505232454 83 186 4.0 8.0 0.00 0.00 0.00 72 1006.0
20260505231954 83 178 4.0 8.0 0.00 0.00 0.00 72 1006.0
20260505231454 83 171 2.0 4.0 0.00 0.00 0.00 73 1006.0
20260505230954 83 94 2.0 4.0 0.00 0.00 0.00 73 1006.0
20260505230454 83 150 2.0 4.0 0.00 0.00 0.00 73 1006.0
20260505225955 83 131 2.0 4.0 0.00 0.00 0.00 73 1006.0
20260505225454 83 167 2.0 4.0 0.00 0.00 0.00 73 1006.0
20260505224954 84 134 2.0 2.0 0.00 0.00 0.00 73 1006.0
20260505224455 84 101 3.0 6.0 0.00 0.00 0.00 72 1006.0
20260505223954 84 160 2.0 4.0 0.00 0.00 0.00 71 1006.0
20260505223454 84 176 3.0 5.0 0.00 0.00 0.00 71 1006.0
20260505222954 84 159 2.0 4.0 0.00 0.00 0.00 71 1006.0
20260505222454 84 189 3.0 7.0 0.00 0.00 0.00 71 1006.0
20260505221954 84 145 2.0 4.0 0.00 0.00 0.00 71 1006.0
20260505221454 84 178 3.0 5.0 0.00 0.00 0.00 71 1006.0
20260505220955 84 184 2.0 6.0 0.00 0.00 0.00 71 1006.0
20260505220454 85 189 2.0 6.0 0.00 0.00 0.00 71 1006.0
20260505215955 85 189 2.0 5.0 0.00 0.00 0.00 70 1006.0
20260505215454 84 156 3.0 5.0 0.00 0.00 0.00 70 1006.0
20260505214954 84 156 2.0 3.0 0.00 0.00 0.00 71 1006.0
20260505214454 84 190 4.0 6.0 0.00 0.00 0.00 69 1006.0
20260505213954 84 182 3.0 7.0 0.00 0.00 0.00 69 1006.0
20260505213454 85 175 6.0 12.0 0.00 0.00 0.00 68 1006.0
20260505212955 85 156 2.0 8.0 0.00 0.00 0.00 69 1006.0
20260505212455 84 196 3.0 6.0 0.00 0.00 0.00 69 1006.0
20260505211954 84 177 5.0 13.0 0.00 0.00 0.00 69 1006.0
20260505211455 84 188 6.0 11.0 0.00 0.00 0.00 69 1006.0
20260505210537 84 180 3.0 5.0 0.00 0.00 0.00 69 1007.0
20260505205954 84 149 3.0 5.0 0.00 0.00 0.00 71 1007.0
20260505205454 84 185 5.0 8.0 0.00 0.00 0.00 71 1007.0
20260505204957 84 83 2.0 4.0 0.00 0.00 0.00 71 1007.0
20260505204454 84 184 3.0 7.0 0.00 0.00 0.00 69 1006.0
20260505203954 84 160 2.0 4.0 0.00 0.00 0.00 70 1007.0
20260505203455 84 157 4.0 8.0 0.00 0.00 0.00 69 1007.0
20260505202954 83 183 5.0 9.0 0.00 0.00 0.00 70 1007.0
20260505202455 83 157 3.0 8.0 0.00 0.00 0.00 72 1007.0
20260505201954 83 197 3.0 7.0 0.00 0.00 0.00 71 1007.0
20260505201454 83 206 4.0 8.0 0.00 0.00 0.00 71 1007.0
20260505200954 84 185 5.0 9.0 0.00 0.00 0.00 71 1007.0
20260505200455 83 184 3.0 6.0 0.00 0.00 0.00 71 1007.0
20260505195954 83 182 2.0 4.0 0.00 0.00 0.00 72 1007.0
20260505195454 82 174 2.0 7.0 0.00 0.00 0.00 72 1007.0
20260505194955 82 184 4.0 9.0 0.00 0.00 0.00 73 1007.0
20260505194454 82 181 3.0 7.0 0.00 0.00 0.00 74 1007.0
20260505193954 82 191 4.0 7.0 0.00 0.00 0.00 74 1008.0
20260505193454 82 195 3.0 6.0 0.00 0.00 0.00 75 1008.0
20260505192954 82 183 3.0 6.0 0.00 0.00 0.00 74 1008.0
20260505192454 82 211 2.0 3.0 0.00 0.00 0.00 75 1008.0
20260505191954 82 195 4.0 9.0 0.00 0.00 0.00 72 1008.0
20260505191454 82 173 3.0 5.0 0.00 0.00 0.00 72 1008.0
20260505190954 82 202 2.0 5.0 0.00 0.00 0.00 74 1007.0
20260505190454 81 172 2.0 4.0 0.00 0.00 0.00 76 1008.0
20260505185954 81 182 5.0 9.0 0.00 0.00 0.00 74 1008.0
20260505185454 80 193 3.0 6.0 0.00 0.00 0.00 77 1007.0
20260505184954 81 178 3.0 6.0 0.00 0.00 0.00 74 1008.0
20260505184453 80 193 3.0 5.0 0.00 0.00 0.00 75 1008.0
20260505183954 80 187 3.0 4.0 0.00 0.00 0.00 76 1008.0
20260505183454 80 208 3.0 5.0 0.00 0.00 0.00 78 1008.0
20260505182954 80 188 3.0 7.0 0.00 0.00 0.00 77 1008.0
20260505182454 79 209 3.0 5.0 0.00 0.00 0.00 78 1008.0
20260505181955 79 178 3.0 6.0 0.00 0.00 0.00 78 1008.0
20260505181454 78 179 4.0 7.0 0.00 0.00 0.00 78 1008.0
20260505180954 78 177 4.0 7.0 0.00 0.00 0.00 78 1008.0
20260505180454 78 185 3.0 7.0 0.00 0.00 0.00 80 1009.0
20260505175954 78 198 4.0 8.0 0.00 0.00 0.00 79 1009.0
20260505175454 78 174 5.0 12.0 0.00 0.00 0.00 79 1008.0
20260505174954 78 200 3.0 6.0 0.00 0.00 0.00 80 1009.0
20260505174455 77 185 4.0 7.0 0.00 0.00 0.00 80 1008.0
20260505173954 77 195 4.0 8.0 0.00 0.00 0.00 81 1008.0
20260505173455 77 188 3.0 7.0 0.00 0.00 0.00 81 1009.0
20260505172954 76 174 4.0 6.0 0.00 0.00 0.00 82 1009.0
20260505172454 76 188 4.0 6.0 0.00 0.00 0.00 82 1009.0
20260505171955 76 181 4.0 6.0 0.00 0.00 0.00 83 1009.0
20260505171500 76 176 3.0 6.0 0.00 0.00 0.00 83 1009.0
20260505170954 76 178 2.0 4.0 0.00 0.00 0.00 84 1009.0
20260505170456 76 192 3.0 6.0 0.00 0.00 0.00 83 1009.0
20260505165954 75 186 4.0 7.0 0.00 0.00 0.00 84 1009.0
20260505165454 75 175 2.0 5.0 0.00 0.00 0.00 84 1009.0
20260505164954 75 185 4.0 7.0 0.00 0.00 0.00 84 1009.0
20260505164455 75 188 2.0 4.0 0.00 0.00 0.00 85 1009.0
20260505163954 74 206 3.0 7.0 0.00 0.00 0.00 86 1009.0
20260505163454 74 240 2.0 4.0 0.00 0.00 0.00 87 1009.0
20260505162954 74 203 4.0 7.0 0.00 0.00 0.00 87 1009.0
20260505162454 74 176 4.0 8.0 0.00 0.00 0.00 87 1009.0
20260505161954 73 175 5.0 8.0 0.00 0.00 0.00 88 1009.0
20260505161455 73 177 4.0 8.0 0.00 0.00 0.00 88 1009.0
20260505160954 73 192 3.0 8.0 0.00 0.00 0.00 88 1009.0
20260505160454 73 218 2.0 3.0 0.00 0.00 0.00 88 1009.0
20260505152955 73 204 3.0 5.0 0.00 0.00 0.00 89 1009.0
20260505152454 73 187 3.0 6.0 0.00 0.00 0.00 89 1009.0
20260505151954 73 172 4.0 6.0 0.00 0.00 0.00 89 1009.0
20260505151456 73 187 3.0 5.0 0.00 0.00 0.00 89 1009.0
20260505150954 73 202 3.0 6.0 0.00 0.00 0.00 89 1009.0
20260505150454 73 191 2.0 5.0 0.00 0.00 0.00 89 1009.0
20260505140454 72 197 4.0 7.0 0.00 0.00 0.00 90 1008.0
20260505124955 71 183 4.0 6.0 0.00 0.00 0.00 90 1008.0
20260505124455 71 174 4.0 8.0 0.00 0.00 0.00 90 1008.0
20260505123955 71 178 5.0 11.0 0.00 0.00 0.00 90 1008.0
20260505123454 71 181 4.0 9.0 0.00 0.00 0.00 90 1008.0
20260505122954 71 212 4.0 6.0 0.00 0.00 0.00 90 1008.0
20260505122454 71 184 4.0 8.0 0.00 0.00 0.00 90 1008.0
20260505121955 71 187 3.0 5.0 0.00 0.00 0.00 90 1008.0
20260505121455 71 181 4.0 10.0 0.00 0.00 0.00 90 1007.0
20260505120954 71 178 4.0 7.0 0.00 0.00 0.00 90 1007.0
20260505120454 71 192 4.0 8.0 0.00 0.00 0.00 90 1007.0
20260505115955 71 194 3.0 9.0 0.00 0.00 0.00 90 1007.0
20260505115454 71 191 3.0 5.0 0.00 0.00 0.00 90 1007.0
20260505114956 71 187 6.0 10.0 0.00 0.00 0.00 90 1007.0
20260505114455 71 184 4.0 7.0 0.00 0.00 0.00 90 1007.0
20260505113954 71 179 3.0 4.0 0.00 0.00 0.00 90 1007.0
20260505113454 71 206 4.0 7.0 0.00 0.00 0.00 90 1007.0
20260505112955 71 178 3.0 5.0 0.00 0.00 0.00 90 1007.0
20260505112453 71 185 4.0 6.0 0.00 0.00 0.00 90 1007.0
20260505111955 71 175 3.0 6.0 0.00 0.00 0.00 90 1007.0
20260505111454 71 177 4.0 8.0 0.00 0.00 0.00 90 1007.0
20260505110955 71 186 5.0 10.0 0.00 0.00 0.00 90 1007.0
20260505110454 71 201 2.0 5.0 0.00 0.00 0.00 90 1007.0
20260505101954 71 187 4.0 6.0 0.00 0.00 0.00 88 1008.0
20260505101454 71 197 3.0 5.0 0.00 0.00 0.00 88 1008.0
20260505100955 71 168 4.0 6.0 0.00 0.00 0.00 88 1008.0
20260505100456 71 183 2.0 4.0 0.00 0.00 0.00 88 1008.0
20260505095954 71 181 2.0 4.0 0.00 0.00 0.00 88 1008.0
20260505095454 71 182 4.0 5.0 0.00 0.00 0.00 88 1008.0
20260505094958 71 175 3.0 6.0 0.00 0.00 0.00 88 1008.0
20260505094454 71 178 3.0 6.0 0.00 0.00 0.00 88 1008.0
20260505093954 71 201 2.0 5.0 0.00 0.00 0.00 88 1008.0
20260505093456 71 179 3.0 8.0 0.00 0.00 0.00 88 1008.0
20260505092954 71 180 4.0 6.0 0.00 0.00 0.00 87 1008.0
20260505092454 71 182 4.0 9.0 0.00 0.00 0.00 87 1008.0
20260505092002 71 164 3.0 5.0 0.00 0.00 0.00 87 1008.0
20260505091454 71 174 4.0 5.0 0.00 0.00 0.00 87 1008.0
20260505090955 71 173 2.0 5.0 0.00 0.00 0.00 87 1008.0
20260505090454 71 181 4.0 7.0 0.00 0.00 0.00 87 1008.0
20260505085954 71 177 3.0 7.0 0.00 0.00 0.00 88 1008.0
20260505085455 71 180 3.0 5.0 0.00 0.00 0.00 88 1008.0
20260505084954 71 160 2.0 4.0 0.00 0.00 0.00 89 1008.0
20260505084454 71 179 4.0 8.0 0.00 0.00 0.00 89 1008.0
20260505083955 71 183 3.0 6.0 0.00 0.00 0.00 89 1008.0
20260505083454 71 182 4.0 9.0 0.00 0.00 0.00 89 1008.0
20260505082955 71 174 3.0 8.0 0.00 0.00 0.00 89 1008.0
20260505082454 71 185 4.0 8.0 0.00 0.00 0.00 88 1008.0
20260505081954 71 186 5.0 9.0 0.00 0.00 0.00 88 1008.0
20260505081455 71 186 3.0 6.0 0.00 0.00 0.00 88 1008.0
20260505080955 71 189 4.0 6.0 0.00 0.00 0.00 88 1008.0
20260505080454 71 189 3.0 7.0 0.00 0.00 0.00 88 1008.0
20260505075954 71 199 3.0 5.0 0.00 0.00 0.00 88 1008.0
20260505075454 71 187 2.0 6.0 0.00 0.00 0.00 88 1008.0
20260505074954 71 176 4.0 7.0 0.00 0.00 0.00 87 1008.0
20260505074454 71 183 5.0 11.0 0.00 0.00 0.00 87 1008.0
20260505073954 71 186 6.0 11.0 0.00 0.00 0.00 87 1008.0
20260505073454 71 195 4.0 9.0 0.00 0.00 0.00 87 1008.0
20260505072954 71 187 5.0 7.0 0.00 0.00 0.00 87 1009.0
20260505072454 71 194 5.0 9.0 0.00 0.00 0.00 87 1009.0
20260505071955 71 178 4.0 7.0 0.00 0.00 0.00 87 1009.0
20260505071459 71 196 5.0 7.0 0.00 0.00 0.00 87 1009.0